View from above orbital plane
|
View from above satellite
|
Ground track
|
The orbit data is extracted from the following two-line orbital elements,
1 8800U 76032B 21106.65675520 .00000037 00000-0 13325-4 0 9998
2 8800 81.2475 295.7998 0094629 182.8659 177.1983 14.10159823315417
Epoch (UTC): | 16 April 2021 15:45:43 |
Eccentricity: | 0.0094629 |
inclination: | 81.2475° |
perigee height: | 790 km |
apogee height: | 927 km |
right ascension of ascending node: | 295.7998° |
argument of perigee: | 182.8659° |
revolutions per day: | 14.10159823 |
mean anomaly at epoch: | 177.1983° |
orbit number at epoch: | 31541 |
The dashed part of the orbit path shows where the satellite is in the earth's shadow,
|
|